User: anonymous   Login
Location: Caltech
(34.1382°N, 118.1253°W)
Time: 10:36:25
(UTC-07:00)
Language:

Iridium 15 - Orbit

View from above orbital plane
View from above orbital plane
View from above satellite
View from above satellite

Ground track
Ground track

The orbit data is extracted from the following two-line orbital elements,

1 24869U 97034A   18113.45667686  .00000111  00000-0  29704-4 0  9993
2 24869  86.4183 252.2231 0002482  90.5430 269.6052 14.38603598 88547
Epoch (UTC): 23 April 2018 10:57:36
Eccentricity: 0.0002482
inclination: 86.4183°
perigee height: 761 km
apogee height: 765 km
right ascension of ascending node: 252.2231°
argument of perigee: 90.5430°
revolutions per day: 14.38603598
mean anomaly at epoch: 269.6052°
orbit number at epoch: 8854

The dashed part of the orbit path shows where the satellite is in the earth's shadow,  

DLR